Location: Cabeza Gorda
(40.0667°N, 4.9667°W)
Time: 20:17:17
(UTC+00:00)

YAOGAN 1 - Pass Details

Date: 15 January 2026
Orbit: 605 x 607 km, 97.8° (Epoch: 10 February)

Event Time Altitude Azimuth Distance (km) Brightness Sun altitude
Rises 07:10:05 0° 20° (NNE) 2,869 6.0 -6.0°
Reaches altitude 10° 07:12:23 10° 28° (NNE) 1,960 5.2 -5.6°
Maximum altitude 07:16:24 40° 98° (E) 895 4.2 -4.9°
Drops below altitude 10° 07:20:23 10° 169° (SSE) 1,945 5.7 -4.2°
Sets 07:22:39 0° 176° (S) 2,843 6.4 -3.8°
